SCP
1 1 2 2 1 1 1 1 2 4 4 3 3 3 4 3 3 3 3 3 5 3
2 2 2 3 3 2 3 2 2 2 3 3 3 3 3 2 3 3 4 4 3 3
3 3 3 3 2 2 3 3 3 2 3 2 3 3 2 2 2 3 4 3 2 2
3 3 3 3 2 2 1 2 2 2 2 2 2 2 2 2 2 2 3 3 2 2
3 3 2 3 3 2 2 1 1 1 1 2 2 2 2 1 2 2 2 2 2 1
2 2 2 3 3 2 1 1 1 1 2 2 2 1 2 2 1 1 1 1 1 1
2 2 2 4 3 2 1 1 1 1 1 1 1 1 1 0 0 0 0 0 0 0
3 3 3 4 3 2 2 2 2 0 0 0 0 0 1 1 0 0 0 0 0 0
3 4 5 3 2 3 1 1 1 0 0 0 0 0 0 0 0 0 0 -0 0 0
5 4 5 4 3 2 1 1 1 0 0 0 0 0 0 0 0 -0 0 0 0 0
5 5 4 4 3 2 1 1 1 1 0 0 0 0 0 0 0 0 0 0 0 0
5 4 4 3 3 2 2 1 1 1 1 1 0 0 0 0 0 0 0 0 0 0
6 4 3 4 3 2 2 1 1 1 1 0 0 0 0 0 0 0 0 0 0 0
5 4 4 4 4 3 2 1 1 1 0 0 0 0 0 0 0 0 0 0 0 0
Wind_Speed_500mb
20 25 29 31 34 40 45 49 55 63 71 70 76 70 73 72 69 68 70 75 80 66
24 27 26 34 41 39 45 45 52 64 57 62 68 75 67 63 64 62 70 75 69 66
26 29 33 34 36 37 40 47 53 52 57 61 69 73 72 72 66 66 71 61 64 61
26 32 31 33 34 34 37 42 47 54 58 60 62 66 68 69 68 64 66 63 59 64
23 25 26 30 35 39 39 41 45 44 46 52 55 58 63 63 62 62 59 59 57 56
19 23 28 29 32 40 43 40 37 41 44 46 50 47 48 48 45 43 49 51 52 52
23 28 32 31 33 33 36 39 39 43 43 47 42 38 41 39 42 47 51 60 60 52
26 29 30 33 34 36 37 37 44 41 38 34 30 31 32 31 29 27 21 21 19 17
32 31 35 38 35 38 44 41 38 36 29 29 31 37 37 28 23 20 14 17 16 13
35 34 34 34 36 34 41 38 37 35 32 32 29 30 32 31 26 24 18 15 12 16
41 40 37 34 33 36 35 38 40 40 32 33 30 34 37 34 27 18 18 15 11 10
46 45 39 33 32 33 39 41 40 35 40 39 37 44 41 33 34 29 22 18 16 19
48 48 39 35 32 33 36 43 40 38 42 42 38 45 52 41 31 36 38 31 28 33
47 46 40 36 29 31 37 40 40 39 38 40 38 45 50 60 45 38 34 33 36 38
Wind_Direction_500mb
268 260 261 271 267 259 261 264 264 263 262 262 259 256 251 251 250 252 250 253 252 246
294 293 270 258 256 264 266 268 266 257 259 259 262 257 249 246 246 249 248 256 248 243
288 296 298 296 294 283 274 264 261 262 258 259 257 262 258 255 251 248 248 247 244 247
285 297 297 297 297 287 283 269 266 267 263 259 256 256 257 254 252 248 250 250 237 242
284 284 284 287 292 294 287 285 283 277 271 266 262 258 255 253 252 249 245 246 247 253
276 279 281 284 285 300 303 294 281 273 268 265 262 261 251 255 253 249 254 256 249 253
278 281 280 282 289 291 297 294 281 277 269 266 254 251 263 262 257 260 256 261 259 257
279 282 279 292 288 290 289 288 280 277 271 263 256 261 263 257 250 245 243 243 229 218
269 275 278 295 294 289 299 298 281 278 266 249 262 262 246 230 224 217 229 228 209 207
270 271 270 282 289 283 291 293 278 269 261 259 258 235 219 211 217 238 212 212 206 210
270 268 266 273 281 285 283 287 274 265 255 250 238 232 225 221 218 222 216 217 224 228
266 263 262 266 273 276 275 287 276 259 249 248 240 235 220 214 219 228 234 254 263 266
268 263 260 262 267 274 267 281 272 264 261 247 238 230 215 213 230 227 227 255 260 266
272 262 256 257 258 276 279 280 277 265 256 248 237 231 232 222 226 221 227 252 257 246
Wind_Speed_850mb
20 25 29 31 34 40 45 49 55 63 71 70 76 70 73 72 69 68 70 75 80 66
24 27 26 34 41 39 45 45 52 64 57 62 68 75 67 63 64 62 70 75 69 66
26 29 33 34 36 37 40 47 53 52 57 61 69 73 72 72 66 66 71 61 64 61
26 32 31 33 34 34 37 42 47 54 58 60 62 66 68 69 68 64 66 63 59 64
23 25 26 30 35 39 39 41 45 44 46 52 55 58 63 63 62 62 59 59 57 56
19 23 28 29 32 40 43 40 37 41 44 46 50 47 48 48 45 43 49 51 52 52
23 28 32 31 33 33 36 39 39 43 43 47 42 38 41 39 42 47 51 60 60 52
26 29 30 33 34 36 37 37 44 41 38 34 30 31 32 31 29 27 21 21 19 17
32 31 35 38 35 38 44 41 38 36 29 29 31 37 37 28 23 20 14 17 16 13
35 34 34 34 36 34 41 38 37 35 32 32 29 30 32 31 26 24 18 15 12 16
41 40 37 34 33 36 35 38 40 40 32 33 30 34 37 34 27 18 18 15 11 10
46 45 39 33 32 33 39 41 40 35 40 39 37 44 41 33 34 29 22 18 16 19
48 48 39 35 32 33 36 43 40 38 42 42 38 45 52 41 31 36 38 31 28 33
47 46 40 36 29 31 37 40 40 39 38 40 38 45 50 60 45 38 34 33 36 38
Wind_Direction_850mb
268 260 261 271 267 259 261 264 264 263 262 262 259 256 251 251 250 252 250 253 252 246
294 293 270 258 256 264 266 268 266 257 259 259 262 257 249 246 246 249 248 256 248 243
288 296 298 296 294 283 274 264 261 262 258 259 257 262 258 255 251 248 248 247 244 247
285 297 297 297 297 287 283 269 266 267 263 259 256 256 257 254 252 248 250 250 237 242
284 284 284 287 292 294 287 285 283 277 271 266 262 258 255 253 252 249 245 246 247 253
276 279 281 284 285 300 303 294 281 273 268 265 262 261 251 255 253 249 254 256 249 253
278 281 280 282 289 291 297 294 281 277 269 266 254 251 263 262 257 260 256 261 259 257
279 282 279 292 288 290 289 288 280 277 271 263 256 261 263 257 250 245 243 243 229 218
269 275 278 295 294 289 299 298 281 278 266 249 262 262 246 230 224 217 229 228 209 207
270 271 270 282 289 283 291 293 278 269 261 259 258 235 219 211 217 238 212 212 206 210
270 268 266 273 281 285 283 287 274 265 255 250 238 232 225 221 218 222 216 217 224 228
266 263 262 266 273 276 275 287 276 259 249 248 240 235 220 214 219 228 234 254 263 266
268 263 260 262 267 274 267 281 272 264 261 247 238 230 215 213 230 227 227 255 260 266
272 262 256 257 258 276 279 280 277 265 256 248 237 231 232 222 226 221 227 252 257 246